Location: Moscow
(38.8570°N, 84.2291°W)
Time: 20:01:25
(UTC+00:00)

O/OREOS (USA 219) - Pass Details

Date: 16 March 2026
Orbit: 577 x 597 km, 72.0° (Epoch: 21 April)

Event Time Altitude Azimuth Distance (km) Brightness Sun altitude
Rises 01:14:30 0° 324° (NW) 2,839 ? -18.3°
Reaches altitude 10° 01:17:07 10° 309° (NW) 1,929 ? -18.8°
Maximum altitude 01:20:27 22° 258° (WSW) 1,298 ? -19.4°
Drops below altitude 10° 01:23:46 10° 207° (SSW) 1,907 ? -20.0°
Sets 01:26:21 0° 192° (SSW) 2,798 ? -20.5°
